Home > Weather > Cape Town > Past weeks

Flag for South Africa Past Weather in Cape Town, South Africa — Yesterday and Last 2 Weeks

Now
59 °F

Fog.


Feels Like: 57 °F
Forecast: 55 / 65 °F
Wind: 9 mph from South

Location: Cape Town International Airport

Current Time: May 27, 2016 at 10:38:42 AM

Latest Report: May 27, 2016 at 10:00 AM


Visibility: 2 mi

Pressure: 30.21 "Hg

Humidity: 88%

Dew Point: 55 °F

Location of Cape TownLocation

Past Weather in Cape Town — Graph

°F

Cape Town Temperature Yesterday

Maximum temperature yesterday: 73 °F (at 2:00 PM)
Minimum temperature yesterday: 46 °F (at 6:00 AM)
Average temperature yesterday: 57 °F

High & Low Weather Summary for the Past Weeks

 TemperatureHumidityPressure
High88 °F (May 17, 2:00 PM)100% (May 26, 4:00 AM)30.42 "Hg (May 26, 4:00 AM)
Low43 °F (May 20, 8:00 AM)31% (May 17, 1:00 PM)29.83 "Hg (May 12, 3:00 PM)
Average59 °F80%30.16 "Hg
* Reported May 12 9:00 AM — May 27 9:00 AM, Cape Town, Weather by CustomWeather, © 2016

Note: Actual official high and low records may vary slightly from our data, if they occured in-between our weather recording intervals... More about our weather records

Advertising

Cape Town Weather History for the Previous 24 Hours

Scroll right to see more
 ConditionsComfort  
Time TempWeatherWind HumidityBarometerVisibility
9:00 AM
Fri, May 27
54 °FFog.2 mph94%30.21 "Hg2 mi
8:00 AM52 °FFog.5 mph94%30.18 "Hg0 mi
7:00 AM52 °FFog.1 mph94%30.15 "Hg0 mi
6:00 AM50 °FCool.2 mph94%30.12 "Hg1 mi
5:00 AM48 °FLight fog.No wind94%30.12 "Hg1 mi
4:00 AM54 °FClear.2 mph94%30.12 "Hg10 mi
3:00 AM55 °FClear.8 mph94%30.15 "Hg10 mi
2:00 AM54 °FClear.5 mph94%30.15 "Hg10 mi
1:00 AM55 °FClear.7 mph94%30.18 "Hg10 mi
12:00 AM55 °FClear.5 mph94%30.18 "Hg10 mi
11:00 PM
Thu, May 26
55 °FClear.6 mph94%30.18 "Hg10 mi
10:00 PM57 °FPassing clouds.7 mph88%30.18 "HgN/A
9:00 PM57 °FPassing clouds.7 mph94%30.18 "HgN/A
8:00 PM54 °FClear.6 mph94%30.21 "Hg10 mi
7:00 PM55 °FClear.5 mph82%30.18 "Hg10 mi
6:00 PM57 °FClear.7 mph82%30.18 "Hg10 mi
5:00 PM64 °FClear.7 mph68%30.18 "Hg10 mi
4:00 PM68 °FSunny.6 mph64%30.18 "Hg10 mi
3:00 PM72 °FPassing clouds.6 mph57%30.18 "HgN/A
2:00 PM73 °FSunny.6 mph33%30.21 "Hg10 mi
1:00 PM72 °FPassing clouds.5 mph53%30.21 "HgN/A
12:00 PM66 °FSunny.2 mph68%30.24 "Hg10 mi
11:00 AM57 °FSunny.No wind94%30.24 "Hg10 mi
10:00 AM54 °FFog.1 mph94%30.27 "Hg0 mi
Weather by CustomWeather, © 2016

See weather overviewHow to use our weather pages